Miscellaneous Local Product
Issued by NWS North Platte, NE

Home | Current Version | Previous Version | Text Only | Print | Product List | Glossary On
Versions: 1 2 3 4 5 6 7 8 9 10 11 12 13 14 15 16 17 18 19 20 21 22 23 24 25 26 27 28 29 30 31 32 33 34 35 36 37 38 39 40 41 42 43 44 45 46 47 48 49 50
626
AXUS43 KLBF 181410
MISLBF


WESTERN AND NORTH CENTRAL NEBRASKA HOURLY WEATHER ROUNDUP
NATIONAL WEATHER SERVICE NORTH PLATTE NE
800 AM CST SAT NOV 18 2017

NOTE: "FAIR" INDICATES FEW OR NO CLOUDS BELOW 12,000 FEET WITH NO
SIGNIFICANT WEATHER AND/OR OBSTRUCTIONS TO VISIBILITY.

NOTE: STATIONS NOT REPORTING VARIABLES SUCH AS SKY/WEATHER OR
PRESSURE ARE PROVIDED BY RAWS AND APRS NETWORKS AND ARE NOT UNDER
NATIONAL WEATHER SERVICE QUALITY CONTROL.

...OBSERVATIONS IN AND NEAR THE EASTERN PANHANDLE OF NEBRASKA...

CITY           SKY/WX    TMP DP  RH WIND       PRES   REMARKS
PINE RIDGE     CLEAR     18  17  96 SW5       30.12R WCI  11
GORDON         FAIR      29  24  79 W13       30.10R WCI  19
CHADRON        CLEAR     26  20  77 W9        30.16R WCI  17
ALLIANCE       CLEAR     24  19  81 NW15      30.14R WCI  11
SIDNEY         CLEAR     26  18  71 NW9       30.16R WCI  17
CRESCENT LAKE    N/A     29  20  68 NW14G23     N/A  WCI  18
$$

...OBSERVATIONS IN NORTHERN NEBRASKA AND FAR SOUTHERN SOUTH DAKOTA...

CITY           SKY/WX    TMP DP  RH WIND       PRES   REMARKS
WINNER         FAIR      34  28  79 NW15      30.03R WCI  24
VALENTINE      CLEAR     35  27  72 NW14      30.06R WCI  26
THEDFORD       CLEAR     33  29  86 NW10G17   30.08R WCI  25
AINSWORTH      CLEAR     33  30  89 NW10      30.04R WCI  25
O`NEILL        CLEAR     36  34  93 NW18      29.98R WCI  25
ORD            PTCLDY    38  35  89 NW20      29.98R WCI  28
BROKEN BOW     CLEAR     37  32  82 NW21G29   30.02R WCI  26
VALENTINE NWR    N/A     31  28  87 NW9         N/A  WCI  23
HALSEY           N/A     33  30  90 NW9G18      N/A  WCI  25
BUTTE            N/A     34  30  85 NW16G24     N/A  WCI  24
CHAMBERS         N/A     37  34  88 E9          N/A  WCI  30
EWING            N/A     38  35  89 NW12G18     N/A  WCI  30
$$

...OBSERVATIONS IN SOUTHWEST NEBRASKA AND FAR NORTHEAST COLORADO...

CITY           SKY/WX    TMP DP  RH WIND       PRES   REMARKS
HOLYOKE        FAIR      34  21  60 NW17G24   30.15R WCI  23
IMPERIAL       CLEAR     33  25  72 NW16      30.14R WCI  23
OGALLALA       CLEAR     33  26  73 NW17      30.13R WCI  23
NORTH PLATTE   CLEAR     35  29  78 NW16      30.09R WCI  25
MCCOOK         CLEAR     35  31  85 NW14      30.09R WCI  26
LEXINGTON      CLEAR     37  33  87 NW13      30.05R WCI  28
STAPLETON        N/A     33  29  84 MISG        N/A
GOTHENBURG       N/A     35  29  79 NW12        N/A  WCI  27
CALLAWAY         N/A     34  31  89 NW15        N/A  WCI  24
$$

...OBSERVATIONS IN CENTRAL LINCOLN COUNTY AREA...

CITY           SKY/WX    TMP DP  RH WIND       PRES   REMARKS
N.P. AIRPORT   CLEAR     35  29  78 NW16      30.09R WCI  25
N.P. DOWNTOWN    N/A     35  29  80 NW7         N/A  WCI  29
N.P. SOUTHEAST   N/A     36  29  75 NW8G18      N/A  WCI  30
N.P. HILLCREST   N/A     35  29  80 N9          N/A  WCI  28
$$

...SOME OBSERVATIONS FROM AROUND THE REGION...

CITY           SKY/WX    TMP DP  RH WIND       PRES   REMARKS
DENVER         PTCLDY    29  18  63 SW6       30.20R WCI  23
LIMON          CLEAR     23  18  81 NW9       30.20R WCI  13
ASPEN          CLOUDY    15  11  83 S6        30.34R WCI   6
LARAMIE        CLOUDY    14   6  70 CALM      30.15R
CASPER         CLOUDY    17   9  70 SW12      30.19R WCI   4
CHEYENNE       CLEAR     22  11  62 NW12      30.16R WCI  10
SCOTTSBLUFF    CLEAR     25  18  74 W9        30.19R WCI  15
GRAND ISLAND   CLOUDY    39  36  89 NW21      29.96R WCI  29
OMAHA          CLOUDY    38  32  79 N16G28    29.85R WCI  29
SIOUX FALLS    PTCLDY    30  22  72 NW8       29.90R WCI  22
PIERRE         CLEAR     30  26  85 N15       30.04R WCI  19
RAPID CITY     CLEAR     33  18  53 NW15      30.10R WCI  23
BISMARCK       PTCLDY    20  15  81 W7        30.08R WCI  11
KANSAS CITY    CLOUDY    42  40  92 N24G35    29.67R
HILL CITY      CLOUDY    40  37  89 NW17G26   30.06R WCI  31
WICHITA        LGT RAIN  45  42  89 NW24G39   29.88R
DODGE CITY     CLOUDY    41  37  86 N22G39    30.04R
OKLAHOMA CITY  MOCLDY    51  38  60 N26G43    29.85R
DALLAS         PTSUNNY   70  64  81 SW13      29.75R
AMARILLO       CLOUDY    44  30  57 NW23G36   30.12R
$$




USA.gov is the U.S. government's official web portal to all federal, state and local government web resources and services.